Location: ?????????????
(44.2297°N, 135.1206°E)
Time: 10:42:53
(UTC+00:00)

Daily predictions for brighter satellites

Satellite Brightness Start Highest point End
(mag) Time Altitude Azimuth Time Altitude Azimuth Time Altitude Azimuth
CZ-4 R/B 3.9 12:02:05 10° SW 12:04:03 14° W 12:06:02 10° WNW
Cosmos 1805 4.2 12:01:47 10° NNE 12:04:26 22° ENE 12:04:40 22° E
USA 305 4.4 12:05:31 10° W 12:08:25 19° SW 12:09:52 16° SSW
CZ-4B R/B 3.7 12:06:23 27° SE 12:08:40 51° ENE 12:13:20 10° N
Cosmos 1933 3.2 12:07:54 32° SSE 12:09:25 61° E 12:13:11 10° NNE
Cosmos 1992 Rocket 4.4 12:04:20 10° SSW 12:09:30 65° WNW 12:14:41 10° NNE
Meteor 1-25 Rocket 4.5 12:03:59 10° N 12:09:32 54° ENE 12:12:22 28° SE
USA 186 2.1 12:10:20 33° SSW 12:11:09 47° W 12:13:50 10° NNW
Cosmos 2219 Rocket 3.7 12:06:34 10° N 12:11:11 25° NE 12:14:23 16° E
Cosmos 2061 Rocket 4.3 12:07:07 10° SSW 12:13:18 68° W 12:19:35 10° N
Cosmos 1464 Rocket 4.4 12:10:40 26° SE 12:13:39 43° E 12:19:25 10° NNE
CZ-2C R/B 3.2 12:17:39 28° ENE 12:17:39 28° ENE 12:19:51 10° N
USA 245 4.3 12:17:39 25° SSE 12:21:16 90° ENE 12:26:57 10° NNW
NOSS 3-3 (C) 4.5 12:17:05 10° SW 12:22:11 55° NW 12:28:16 10° NNE
Cosmos 1602 Rocket 3.4 12:23:11 10° N 12:27:30 72° E 12:28:51 42° SSE
Cosmos 2322 Rocket 2.6 12:23:51 10° NNW 12:29:24 53° ENE 12:31:50 32° ESE
Cosmos 2082 Rocket 4.0 12:26:00 10° WSW 12:31:04 32° NW 12:36:09 10° N
IRS-1C Rocket 4.0 12:28:51 33° SSE 12:31:16 80° ENE 12:36:34 10° NNW
Okean 1 4.0 12:32:26 32° ENE 12:32:26 32° ENE 12:35:15 10° NNE
Chandra Rocket (1) 4.5 12:20:14 10° WSW 12:36:14 30° SSW 12:39:01 25° S
Terra 4.2 12:34:14 10° SW 12:37:13 17° W 12:40:12 10° NW
NOSS 3-4 (A) 4.0 12:30:32 10° NNW 12:37:17 68° NE 12:41:34 29° SE
Cosmos 1486 Rocket 4.0 12:32:15 10° NNW 12:37:31 69° ENE 12:39:23 40° SE
Cosmos 1461 3.7 12:34:18 10° SW 12:37:51 43° NW 12:41:24 10° NNE
NOSS 3-4 (C) 4.0 12:31:10 10° NNW 12:37:56 68° NE 12:42:13 29° SE
Cosmos 220 Rocket 3.9 12:37:19 26° SSW 12:39:29 73° WNW 12:43:35 10° NNE
Meteor 2-10 4.3 12:36:35 10° N 12:42:19 66° ENE 12:44:22 39° SE
Cosmos 2098 Rocket 3.1 12:41:21 38° S 12:43:10 84° E 12:47:29 10° N
Cosmos 1076 Rocket 4.0 12:44:07 10° N 12:48:10 42° ENE 12:48:30 41° E
Helios 1A 4.3 12:45:48 10° NE 12:48:15 24° ENE 12:48:15 24° ENE
Cosmos 1437 Rocket 4.0 12:47:46 20° SW 12:49:37 34° WNW 12:52:56 10° N
Cosmos 2034 Rocket 4.2 12:49:26 37° SSE 12:51:43 57° E 12:57:55 10° NNE
ISS -1.4 12:51:40 10° NW 12:54:23 22° N 12:56:44 12° NE
Cosmos 2278 3.8 12:49:20 10° NNW 12:55:02 73° WSW 12:57:01 41° S
Cosmos 540 Rocket 3.6 12:55:05 49° SE 12:55:51 53° ESE 13:00:51 10° NNE
Cosmos 2151 4.1 12:52:40 10° NNW 12:56:25 35° W 12:57:50 27° SW
USA 290 3.1 12:57:45 44° NNE 12:57:45 44° NNE 13:00:00 10° NNE
Meteor 1-5 Rocket 4.2 12:51:17 10° N 12:57:05 88° W 12:59:16 41° S
Cosmos 1606 Rocket 3.4 12:58:37 58° SSW 12:59:28 86° WNW 13:03:48 10° N
SL-16 R/B 2.7 12:54:10 10° NW 12:59:39 52° WSW 13:01:43 35° SSW
DELTA 2 R/B (1) 3.8 12:54:57 10° W 13:00:17 48° S 13:00:45 47° S
Okean O Rocket 4.0 13:05:15 10° SW 13:07:43 15° W 13:10:12 10° NW
Cosmos 1726 Rocket 3.2 13:08:09 84° SE 13:08:13 85° E 13:12:16 10° N
Nadezhda 4 Rocket 4.0 13:05:03 10° N 13:11:10 77° W 13:13:25 41° S
Geosat 3.9 13:09:18 10° NNE 13:14:18 67° ESE 13:14:58 60° SSE
Cosmos 1634 Rocket 4.3 13:14:36 43° ESE 13:15:48 48° E 13:21:43 10° NNE
Ariane Rocket 4.0 13:17:46 29° SW 13:19:28 37° W 13:24:11 10° NNW
Okean 1-7 Rocket 4.2 13:19:00 10° NNW 13:23:18 47° W 13:24:01 43° WSW
Cosmos 2333 Rocket 3.2 13:21:29 10° NW 13:26:38 36° WSW 13:28:13 30° SW
Cosmos 2195 Rocket 4.4 13:23:11 10° N 13:29:25 82° W 13:31:07 51° S
Cosmos 1766 4.3 13:27:25 10° N 13:29:22 33° N 13:29:22 33° N
Cosmos 1833 4.3 13:28:33 36° SW 13:30:58 74° WNW 13:36:37 10° NNE
Cosmos 2297 Rocket 4.1 13:32:59 16° E 13:32:59 16° E 13:35:19 10° ENE
Cosmos-2242 3.0 13:32:48 72° NNE 13:32:48 72° NNE 13:36:32 10° N
IKONOS-2 4.4 13:28:30 10° NNE 13:32:25 79° N 13:32:25 79° N
Cosmos 2026 Rocket 4.0 13:27:32 10° N 13:33:58 90° W 13:35:39 53° S
Cosmos 1763 Rocket 3.9 13:34:01 38° SW 13:35:56 62° WNW 13:41:11 10° NNE
Cosmos 1627 Rocket 4.5 13:30:26 10° N 13:36:51 90° WNW 13:38:30 54° S
Meteor 2-6 Rocket 4.5 13:37:28 52° ESE 13:38:10 55° E 13:43:59 10° NNE
Cosmos 1898 Rocket 4.3 13:35:33 10° N 13:40:22 38° ENE 13:41:14 35° E
Cosmos 2360 Rocket 2.7 13:36:22 10° NW 13:41:47 46° WSW 13:42:42 42° SW
Cosmos 2322 4.4 13:37:30 10° NNW 13:42:56 44° ENE 13:44:19 38° E
Cosmos 990 Rocket 4.0 13:41:42 10° NNW 13:46:49 65° WSW 13:47:12 62° SW
CZ-2C R/B 4.1 13:50:26 10° NNE 13:54:13 54° ENE 13:54:13 54° ENE
Cosmos 44 3.4 13:49:45 10° NNW 13:55:10 79° NE 13:55:34 74° ESE
Cosmos 2219 Rocket 2.3 13:49:57 10° NNW 13:55:30 58° WSW 13:56:04 56° SW
Cosmos 2221 3.5 13:57:43 36° NE 13:57:43 36° NE 14:00:37 10° NNE
Cosmos 1953 Rocket 4.5 13:55:59 10° NNW 13:59:51 39° W 13:59:51 39° W
Helios 1B rocket 3.5 14:05:27 35° NW 14:05:27 35° NW 14:07:40 10° NNW
Cosmos 1536 3.9 14:04:06 10° NNW 14:06:36 37° NW 14:06:36 37° NW
Cosmos 841 Rocket 3.6 14:08:32 62° E 14:08:32 62° E 14:13:22 10° NNE
Cosmos 2058 Rocket 3.8 14:08:54 45° WNW 14:08:54 45° WNW 14:13:01 10° N
Cosmos 2322 Rocket 3.6 14:08:35 10° NW 14:13:02 24° WSW 14:13:37 24° WSW
GP-B 4.4 14:09:52 10° NNE 14:13:05 31° ENE 14:13:05 31° ENE
Cosmos 1470 4.4 14:10:34 10° N 14:12:14 28° N 14:12:14 28° N
Cosmos 2142 Rocket 4.4 14:21:49 67° SSE 14:22:40 80° E 14:28:54 10° N
Cosmos 2180 Rocket 4.4 14:23:05 67° SSE 14:23:54 78° E 14:30:15 10° N
ARIANE 5 R/B 2.9 14:25:28 64° NNW 14:25:28 64° NNW 14:29:20 10° NNW
ALOS 2 2.9 14:27:02 65° N 14:27:02 65° N 14:30:48 10° NNW
Meteor 2-9 Rocket 4.0 14:21:12 10° N 14:26:37 88° W 14:26:50 84° S
Cosmos 372 Rocket 4.1 14:24:03 10° NNW 14:28:46 60° W 14:28:46 60° W
ISS -1.2 14:28:30 10° NW 14:29:40 19° NW 14:29:40 19° NW
Cosmos 2237 Rocket 3.1 14:26:34 10° NNW 14:31:57 41° ENE 14:33:25 35° E
CZ-2C R/B 3.5 14:31:45 37° E 14:32:29 39° ENE 14:37:17 10° N
NOSS 0 Rocket 3.9 14:28:31 10° NNW 14:34:42 75° ENE 14:35:40 62° ESE
Cosmos 1975 4.2 14:31:55 10° NNW 14:34:08 34° NNW 14:34:08 34° NNW
Cosmos 1980 4.4 14:30:39 10° NNW 14:36:06 47° ENE 14:37:18 41° E
USA 234 3.1 14:29:57 10° NE 14:36:32 77° SE 14:37:55 58° SSW
Spot 4 4.1 14:37:12 60° WNW 14:37:12 60° WNW 14:41:31 10° NNW
RESURS DK-1 3.5 14:33:56 10° NNW 14:36:32 39° NW 14:36:32 39° NW
Meteor 2-4 Rocket 4.3 14:41:40 41° E 14:41:40 41° E 14:46:44 10° NNE
Cosmos 2227 Rocket 3.6 14:42:13 25° E 14:42:13 25° E 14:46:16 10° NE
COSMOS 2428 2.6 14:36:36 10° NNW 14:42:19 76° WSW 14:42:24 76° WSW
Meteor 1-11 Rocket 3.5 14:37:32 10° N 14:43:13 83° E 14:43:28 80° SE
Meteor 1-10 Rocket 4.2 14:45:12 76° SSW 14:45:42 87° W 14:51:41 10° N
Cosmos 858 Rocket 4.5 14:41:04 10° NNW 14:46:14 71° ENE 14:46:15 71° ENE
BREEZE-M DEB (TANK) 4.3 14:27:01 10° SW 14:48:40 63° SSE 14:54:19 10° ENE
ARGOS Delta rocket 4.2 14:43:57 10° N 14:49:03 62° WNW 14:49:22 60° W
PSLV R/B 4.1 14:45:15 10° N 14:48:54 57° NNW 14:48:54 57° NNW
Cosmos 1937 Rocket 3.5 14:44:25 10° NNW 14:49:12 72° WNW 14:49:12 72° WNW
Cosmos 2263 Rocket 3.9 14:52:40 19° E 14:52:40 19° E 14:56:09 10° NE
Lacrosse 4 Rocket 3.1 14:55:01 25° ENE 14:55:01 25° ENE 14:57:01 10° NE
Meteor 2-20 Rocket 4.3 14:57:12 64° ESE 14:57:30 65° E 15:03:09 10° NNE
ACS3 Solar Sail 2.8 14:53:59 10° NNE 14:59:10 30° E 14:59:54 29° ESE
Meteor 1-27 Rocket 3.6 15:00:42 78° SSE 15:01:03 83° E 15:06:50 10° NNE
Meteor 2-20 4.3 15:06:13 67° SW 15:06:56 76° W 15:13:03 10° N
MetOp-A 4.0 15:10:01 66° WNW 15:10:01 66° WNW 15:14:18 10° NNW
CZ-2C R/B 3.2 15:04:35 10° NNE 15:10:23 81° WNW 15:10:55 73° SW
SeaSat 1 3.4 15:10:39 36° E 15:11:50 42° NE 15:16:27 10° NNW
Cosmos 2297 Rocket 2.1 15:14:44 69° WSW 15:15:12 74° WNW 15:20:53 10° NNE
Cosmos 2266 Rocket 4.4 15:22:29 10° NNW 15:28:10 44° W 15:28:39 43° WSW
Cosmos 1238 Rocket 3.8 15:29:51 44° NNW 15:29:51 44° NNW 15:33:03 10° N
Meteor 2-10 Rocket 3.7 15:25:30 10° N 15:31:03 72° ENE 15:31:45 64° SE
BREEZE-M R/B 4.0 15:27:28 10° WNW 15:33:22 74° SW 15:40:36 10° SE
Cosmos 1066 Rocket 3.9 15:39:40 81° SSW 15:39:58 88° WNW 15:45:29 10° N
Cosmos 1814 Rocket 3.8 15:40:06 88° SSW 15:40:08 90° SW 15:45:24 10° NNE
Okean 3 Rocket 3.9 15:38:52 10° N 15:43:11 60° ENE 15:43:11 60° ENE
Cosmos 1842 Rocket 3.9 15:48:32 61° NNW 15:48:32 61° NNW 15:52:23 10° N
BlueWalker 3 3.3 15:53:16 34° NNE 15:53:16 34° NNE 15:55:33 10° NE
Landsat 5 4.2 15:49:29 10° N 15:52:44 44° NW 15:52:44 44° NW
Meteor 1-18 Rocket 4.0 15:54:18 72° SSW 15:54:54 87° W 16:00:35 10° N
Cosmos 1655 Rocket 4.1 15:48:54 10° NNW 15:55:00 57° W 15:55:49 53° WSW
Sich 1 3.3 15:53:16 10° N 15:56:46 62° NNW 15:56:46 62° NNW
IDEFIX/ARIANE 42P 3.8 15:53:57 10° NE 15:58:31 30° E 15:59:40 27° ESE
Cosmos 1805 Rocket 4.0 15:56:05 10° N 16:00:20 54° ENE 16:00:22 54° E
Cosmos 1340 Rocket 3.8 15:56:46 10° N 16:00:11 39° ENE 16:00:11 39° ENE
SL-14 R/B 3.9 16:01:58 50° N 16:01:58 50° N 16:04:53 10° N
SL-16 R/B 2.6 15:58:24 10° NNW 16:04:03 60° ENE 16:06:33 33° SE
Cosmos 2219 3.9 16:03:34 39° SE 16:04:24 41° ESE 16:09:39 10° NE
ADEOS Rocket 4.4 16:04:32 10° NNE 16:11:34 38° E 16:15:15 24° SE
CZ-2C R/B 3.8 16:13:11 28° W 16:13:11 28° W 16:17:16 10° NW
Cosmos 2237 Rocket 3.2 16:10:53 10° NW 16:15:11 31° W 16:15:11 31° W
Spot 1 4.2 16:13:38 10° NNE 16:18:21 76° ESE 16:18:47 69° SSE
USA 234 4.2 16:13:10 10° NE 16:19:17 43° NNW 16:25:14 11° W
In-Cosmos 22 4.1 16:19:04 59° SW 16:19:55 69° WNW 16:25:34 10° N
Cosmos 1953 4.0 16:19:10 10° NNE 16:22:11 24° ENE 16:23:03 22° E
Cosmos 1408 Rocket 3.4 16:20:07 10° N 16:24:13 77° WNW 16:24:13 77° WNW
Cosmos 2227 Rocket 2.7 16:23:59 41° W 16:25:23 50° WNW 16:30:55 10° NNE
Iridium 4 Rocket 4.5 16:26:39 36° W 16:27:27 38° W 16:32:49 10° NNW
Cosmos 2084 3.9 16:24:58 10° NNW 16:29:02 56° NE 16:30:33 34° ESE
Lacrosse 4 Rocket 3.2 16:30:24 20° WNW 16:31:08 20° NW 16:34:14 10° N
ATLAS 2AS CENTAUR R/B 3.8 16:26:07 10° NNW 16:32:34 44° NE 16:39:01 10° ESE
Cosmos 2263 Rocket 2.3 16:34:19 49° WSW 16:35:39 64° WNW 16:41:13 10° NNE
ACS3 Solar Sail 2.3 16:35:59 10° N 16:41:38 45° WNW 16:43:23 36° WSW
NOSS 2-2 (C) 3.8 16:44:16 41° ENE 16:44:16 41° ENE 16:46:31 10° NE
S3M 3.9 16:41:30 42° S 16:43:46 85° E 16:49:57 10° N
Cosmos 1943 3.9 16:43:24 10° NNW 16:48:54 53° ENE 16:54:21 10° SE
SeaSat 1 3.6 16:50:15 27° W 16:50:15 27° W 16:53:31 10° NW
ADEOS II 4.4 16:50:10 10° NE 16:53:21 16° E 16:56:32 10° SE
Cosmos 2315 Rocket 4.0 16:50:40 35° S 16:53:31 80° E 16:59:53 10° N
MSX 3.8 16:51:54 10° NNE 16:57:42 85° WNW 16:59:56 40° SSW
Cosmos 1151 Rocket 4.0 16:58:38 32° W 16:58:51 32° WNW 17:02:45 10° N
Cosmos 1703 3.3 16:59:36 50° NNW 16:59:36 50° NNW 17:02:14 10° N
Cosmos 2297 Rocket 4.4 16:57:09 10° WNW 17:00:16 15° NW 17:03:24 10° N
Tiangong 0.2 17:04:13 17° ESE 17:04:13 17° ESE 17:05:05 10° ESE
Cosmos 1570 Rocket 4.0 17:01:32 45° SW 17:03:09 74° WNW 17:08:28 10° NNE
Resurs 1-4 Rocket 3.6 16:59:58 10° NE 17:04:36 30° E 17:08:22 14° SSE
Cosmos 1633 Rocket 3.3 17:02:27 10° N 17:06:45 64° E 17:08:47 29° SSE
Cosmos 1844 Rocket 3.3 17:04:15 28° SSE 17:06:50 48° ESE 17:12:11 10° NE
Cosmos 2082 3.7 17:05:46 40° SW 17:07:51 75° WNW 17:13:29 10° NNE
Cosmos 1125 Rocket 3.9 17:04:36 10° NW 17:09:31 40° WSW 17:10:15 38° WSW
CENTAUR R/B 2.6 17:11:01 34° S 17:13:20 60° ESE 17:19:51 10° NE
Cosmos 1709 Rocket 4.0 17:08:24 10° NNW 17:14:32 65° W 17:17:39 30° SSW
NOSS 2-2 (D) 3.3 17:15:06 47° SE 17:15:22 49° SE 17:18:23 10° NE
CZ-4C R/B 4.3 17:09:17 10° NNW 17:15:39 41° NE 17:23:29 10° ESE
Cosmos 773 Rocket 4.1 17:18:43 37° SW 17:20:34 60° WNW 17:25:39 10° NNE
Meteor 1-21 4.3 17:17:54 26° S 17:21:09 73° E 17:26:44 10° NNE
Atlas Centaur 2 3.7 17:23:32 25° SSW 17:25:07 27° S 17:31:34 10° ESE
Geosat FO 4.5 17:25:04 10° NE 17:27:39 45° ESE 17:27:47 44° SE
Cosmos 2150 Rocket 4.0 17:24:14 10° NNW 17:29:42 83° WSW 17:35:04 10° SSE
BlueWalker 3 4.1 17:27:19 10° WNW 17:30:03 20° N 17:32:48 10° NE
CRYOSAT 2 4.4 17:32:30 30° SSW 17:34:51 63° W 17:39:43 10° N
Meteor 1-13 Rocket 4.5 17:32:51 29° SW 17:35:30 54° WNW 17:41:08 10° N
Okean 2 3.4 17:33:47 29° S 17:35:35 68° E 17:39:23 10° NNE
FENGYUN 3A 4.0 17:32:41 10° N 17:37:54 51° WNW 17:40:36 27° SW
IDEFIX/ARIANE 42P 3.4 17:33:12 10° N 17:38:00 38° WNW 17:40:21 25° WSW
COSMOS 2441 4.3 17:33:42 10° N 17:38:29 74° WNW 17:40:59 28° SSW
Cosmos 1666 Rocket 3.9 17:34:42 10° NNW 17:38:58 46° W 17:40:32 32° SW
Cosmos 2208 Rocket 4.4 17:37:23 28° SW 17:39:54 51° WNW 17:45:02 10° NNE
BREEZE-M DEB (TANK) 4.5 17:40:27 10° NW 17:43:19 23° N 17:45:11 10° ENE
H-2A R/B 2.8 17:39:14 10° NNE 17:44:30 52° E 17:49:33 11° S
Cosmos 1844 3.7 17:41:18 25° SSW 17:44:49 87° ESE 17:50:37 10° NNE
CZ-2D R/B 2.5 17:39:32 10° NNE 17:44:55 63° ESE 17:49:30 14° S
SL-16 R/B 3.4 17:43:30 10° NW 17:47:38 21° W 17:48:21 21° WSW
Cosmos 2219 4.3 17:45:26 19° WSW 17:48:35 33° NW 17:53:39 10° N
NPP 4.4 17:47:09 10° N 17:52:07 39° WNW 17:55:04 21° WSW
USA 281 3.2 17:46:05 10° SSE 17:52:39 87° WSW 17:59:16 10° NNW
Cosmos 2344 4.3 17:47:13 12° S 17:54:27 45° ESE 18:01:12 10° NE
NOAA 11 4.5 17:51:23 10° N 17:56:42 54° WNW 18:00:15 21° SW
Cosmos 1953 3.5 17:54:11 10° NW 17:56:58 21° W 17:57:14 21° W
ADEOS Rocket 3.9 17:49:48 10° N 17:57:05 48° WNW 18:02:10 19° SW
DMSP B5D2-2 4.0 17:52:20 11° S 17:57:16 66° WSW 18:02:29 10° NNW
Cosmos 2154 Rocket 4.1 17:51:27 10° N 17:57:43 79° E 18:03:54 10° S
NOSS 3-2 (A) 3.9 17:54:49 15° S 17:58:30 43° ESE 18:03:48 10° NE
Envisat 3.0 17:54:46 10° N 17:59:51 74° WNW 18:03:34 18° SSW
Cosmos 2074 Rocket 4.0 17:54:02 10° N 18:00:20 88° W 18:06:35 10° S
Cosmos 1515 Rocket 3.6 17:57:45 22° SSW 18:00:34 68° W 18:05:00 10° N
IRIDIUM 114 4.3 17:59:37 10° N 18:04:52 89° E 18:10:05 10° S
Cosmos 2184 Rocket 3.9 18:00:14 10° N 18:06:25 82° W 18:12:35 10° S
EXPRESS MD2 4.2 18:04:29 10° NW 18:06:36 31° NNE 18:09:22 10° E
ARGOS 4.4 18:02:13 10° NNE 18:07:11 38° E 18:12:07 10° SSE
Cosmos 1400 Rocket 3.9 18:06:13 10° N 18:09:52 43° ENE 18:13:28 10° SSE
IRIDIUM 103 4.3 18:08:47 10° N 18:14:00 76° W 18:19:12 10° S
ALOS 2.3 18:14:02 10° N 18:18:32 63° WNW 18:22:24 14° SSW
NOSS 2-2 (E) 3.4 18:18:31 19° WSW 18:20:40 44° NW 18:23:36 10° NNE
Cosmos 2263 Rocket 4.4 18:18:09 10° WNW 18:20:42 13° NW 18:23:15 10° NNW
Cosmos 1867 3.7 18:16:59 10° NW 18:22:17 51° WSW 18:27:31 10° SSE
ATLAS 2AS CENTAUR R/B 2.9 18:17:06 10° NW 18:23:29 46° WSW 18:29:55 10° S
H-2A R/B 2.4 18:26:39 10° S 18:30:04 45° W 18:33:32 10° NNW
Cosmos 1610 Rocket 4.5 18:25:19 10° N 18:31:32 84° W 18:37:47 10° S
Cosmos 1943 4.3 18:28:08 10° NW 18:32:31 24° WSW 18:36:52 10° SSW
ADEOS II 2.1 18:28:10 10° N 18:33:23 68° WNW 18:38:33 10° SSW
Cosmos 2285 Rocket 4.4 18:28:37 10° NW 18:34:26 40° WSW 18:40:15 10° SSW
Cosmos 1733 Rocket 4.3 18:30:18 10° N 18:34:29 44° ENE 18:38:35 10° SSE
Okean 3 3.8 18:33:46 12° SSW 18:37:15 42° WNW 18:41:05 10° N
METEOR-M 4.1 18:32:59 10° NNE 18:38:20 83° WNW 18:43:39 10° SSW
Tiangong -0.8 18:36:23 13° WSW 18:38:27 23° SSW 18:41:01 10° SSE
Cosmos 1538 Rocket 4.0 18:37:57 10° SSW 18:43:05 74° WNW 18:48:15 10° NNE
Resurs 1-4 Rocket 2.8 18:39:34 10° N 18:44:23 37° WNW 18:49:09 10° SW
BREEZE-M DEB (TANK) 3.2 18:42:05 10° WNW 18:46:39 36° N 18:49:04 10° ENE
Cosmos 1833 Rocket 3.6 18:44:24 10° NNW 18:49:56 54° ENE 18:55:26 10° SE
Cosmos 1844 Rocket 3.9 18:46:07 10° WSW 18:50:55 29° NW 18:55:44 10° N
Cosmos 1933 Rocket 4.4 18:49:15 10° NNW 18:53:05 31° W 18:56:53 10° SSW
Cosmos 923 Rocket 4.5 18:51:03 10° S 18:56:17 64° ESE 19:01:32 10° NNE
CZ-2C R/B 3.6 18:52:13 10° NNE 18:56:30 39° E 19:00:45 10° SSE
Nadezhda 1 Rocket 4.3 18:52:45 10° SSW 18:58:37 49° WNW 19:04:29 10° N
SL-16 R/B 2.6 18:52:29 10° SSE 18:58:45 89° WSW 19:05:03 10° NNW
Cosmos 1603 4.4 18:54:05 10° NW 18:59:11 33° WSW 19:04:13 10° SSW
CZ-4C R/B 3.1 18:57:13 10° NW 19:04:22 63° WSW 19:13:06 10° SSE
